Location: Unspecified
(33.2407°S, 0.0000°E)
Time: 11:43:47
(UTC+00:00)

Envisat - Pass Details

Date: 27 May 2019
Orbit: 764 x 766 km, 98.1° (Epoch: 19 June)

Event Time Altitude Azimuth Distance (km) Brightness Sun altitude
Exits shadow 19:15:01 50° 5° (N) 980 3.5 -27.3°
Drops below altitude 10° 19:18:46 10° 352° (N) 2,302 5.6 -28.1°
Sets 19:21:03 0° 350° (N) 3,220 6.4 -28.6°
